Temperature
32 32 32 32 32 32 32 32 31 32 34 33 32 31 32 32 32 31 30 29 28 27 27 26 25 24 23 22 22 21 21 21 21 20 20 20 20 20 20 20 20 19 19 19
32 32 33 34 34 33 32 32 32 32 33 33 32 31 32 33 32 31 30 29 29 28 27 26 25 24 23 22 22 21 21 21 21 21 20 20 20 20 20 20 20 19 19 19
31 33 34 34 33 33 33 32 32 32 33 33 32 31 31 32 32 32 31 30 29 28 27 26 25 24 23 22 22 21 21 21 21 20 20 20 20 20 20 20 20 19 19 19
32 33 34 34 33 33 32 34 33 32 32 31 32 30 31 31 31 32 31 30 29 28 27 26 25 24 23 22 22 21 21 21 21 20 20 20 20 20 20 20 20 19 19 19
33 33 33 33 34 34 33 34 33 33 32 31 31 30 30 31 30 31 31 31 30 29 28 26 25 24 24 23 22 21 21 21 21 21 20 20 20 20 20 20 20 19 19 19
33 34 34 34 34 35 34 33 33 32 32 30 30 30 29 30 30 31 31 31 30 29 28 26 25 24 24 23 22 21 21 21 21 20 20 20 20 20 20 20 19 19 19 19
32 33 34 34 34 34 34 32 30 30 30 30 31 31 30 31 32 32 31 30 30 29 28 27 26 25 24 23 22 22 21 21 21 21 20 20 20 20 20 19 19 19 19 19
31 31 33 34 34 33 33 32 30 29 30 30 31 30 31 32 32 31 31 30 30 29 28 27 26 25 24 23 23 22 21 21 21 20 20 20 20 20 19 19 19 19 19 19
31 31 34 34 35 34 33 33 33 32 30 30 30 31 31 32 32 32 31 30 29 29 28 27 26 25 24 24 23 22 21 21 20 20 20 20 20 19 19 19 19 19 19 19
32 31 33 34 34 34 33 33 32 31 29 29 29 29 29 31 31 31 30 30 29 29 28 27 26 25 24 24 23 22 21 21 20 20 20 20 20 19 19 19 19 18 18 18
33 31 32 33 32 32 33 32 32 30 30 29 28 29 31 30 31 30 29 28 28 28 27 27 26 25 24 24 23 22 21 20 20 20 20 19 19 19 19 19 18 18 18 18
33 32 31 32 34 34 33 32 32 30 29 30 30 29 31 30 31 30 29 28 28 28 27 26 25 25 24 23 22 22 21 21 20 20 20 19 19 19 19 19 18 18 18 18
32 31 29 30 31 32 32 33 33 32 31 30 29 29 30 30 30 29 29 28 27 27 26 26 25 24 24 23 22 22 21 21 20 20 19 19 19 19 18 18 18 18 18 18
31 31 30 30 30 31 31 32 33 32 31 30 30 29 29 29 29 29 28 27 27 26 26 25 25 24 23 23 22 22 21 21 20 20 19 19 19 18 18 18 18 18 18 17
32 31 31 31 32 32 32 32 32 32 31 31 30 29 29 29 29 28 27 27 26 26 26 25 24 23 23 22 22 21 21 21 20 20 19 19 19 18 18 18 18 18 17 17
31 30 30 30 32 32 31 32 32 32 32 31 31 30 30 29 28 28 27 27 26 25 25 24 23 23 22 22 21 21 21 20 20 20 19 19 18 18 18 18 18 17 17 17
30 29 28 29 30 31 30 31 32 31 32 31 30 30 30 28 28 27 27 26 26 25 24 24 23 23 22 21 21 20 20 20 20 19 19 18 18 18 18 18 17 17 17 17
29 29 28 28 28 27 30 32 32 31 31 31 30 30 29 28 27 27 26 26 25 25 24 23 23 22 22 21 21 20 20 19 19 19 18 18 18 18 18 17 17 17 17 16
30 28 28 28 27 28 30 30 30 29 29 30 29 29 28 28 27 26 25 25 24 24 24 23 23 22 21 21 20 20 19 19 19 18 18 18 18 17 17 17 17 16 16 16
30 29 28 27 26 26 28 29 30 29 28 29 29 28 27 27 26 25 25 24 24 24 23 22 22 21 21 20 20 19 19 18 18 18 18 17 17 17 17 17 16 16 16 16
27 27 27 26 26 27 28 28 29 27 26 27 27 27 26 26 25 24 24 23 23 22 22 22 21 21 20 19 19 19 18 18 18 17 17 17 17 17 16 16 16 16 16 15
26 26 25 26 25 25 27 27 26 25 26 26 26 25 25 24 24 23 23 22 22 22 21 21 20 20 19 19 18 18 17 17 17 17 17 16 16 16 16 16 16 15 15 15
25 25 26 25 25 25 25 25 25 25 25 25 25 24 24 24 23 23 22 22 21 21 20 20 19 19 18 18 17 17 17 16 16 16 16 16 16 16 16 15 15 15 15 15
25 25 25 25 25 25 24 24 24 24 24 24 24 24 23 23 23 22 21 21 21 20 20 19 19 18 17 17 17 16 16 16 16 16 15 15 15 15 15 15 15 14 14 14
24 24 24 24 24 24 24 24 24 23 23 23 23 23 23 23 22 21 21 20 20 19 19 18 18 17 17 16 16 16 16 16 15 15 15 15 15 15 15 15 15 14 14 14
23 23 23 23 23 23 23 23 23 22 22 22 22 22 22 21 21 21 20 19 19 18 18 17 17 17 16 16 15 15 15 15 15 15 15 15 15 15 15 15 15 15 14 14
Wind_Speed
13 12 10 9 9 8 9 6 4 5 3 3 4 4 7 10 10 11 12 12 12 11 12 11 11 13 13 11 10 8 7 6 4 3 3 3 3 2 2 3 2 2 1 1
11 14 13 11 10 8 8 9 6 5 3 3 2 4 6 7 9 11 11 12 12 12 12 12 11 13 13 12 11 9 8 7 5 4 3 3 3 3 3 2 3 2 1 1
14 11 11 11 9 8 10 9 6 5 6 5 4 4 5 4 6 9 11 12 12 13 14 12 11 12 13 12 11 9 8 7 6 5 3 2 2 2 2 3 2 2 1 1
13 13 11 11 10 10 9 7 6 5 7 6 5 4 5 6 7 9 10 11 12 13 14 14 12 12 12 12 11 9 9 7 6 5 3 4 3 3 2 2 3 3 1 1
13 12 12 12 10 9 8 7 7 7 7 8 6 4 4 5 5 8 10 11 12 13 14 14 14 12 12 12 12 10 8 7 7 5 4 3 2 2 2 2 3 3 2 1
15 12 12 11 10 9 7 8 8 9 8 9 8 6 4 5 8 8 9 12 12 13 14 14 14 12 11 11 11 11 9 7 6 5 4 4 2 2 2 2 2 2 2 2
14 14 13 10 10 10 9 7 5 6 6 7 6 5 4 7 7 7 8 11 12 14 14 13 13 13 11 11 11 11 10 8 7 6 4 4 4 3 3 2 2 2 1 2
12 13 13 11 11 9 10 9 8 7 6 5 4 3 4 7 7 6 7 9 10 11 12 12 12 12 11 11 11 10 10 8 7 6 5 4 4 3 2 2 2 1 1 1
9 11 12 12 10 11 10 10 10 9 9 8 4 1 4 8 9 7 7 9 9 10 11 11 12 11 11 10 10 10 10 8 8 7 5 5 4 3 2 2 2 1 1 1
11 10 10 9 9 12 11 11 7 6 6 6 6 5 3 6 7 7 7 6 7 8 9 10 11 11 10 11 10 10 9 8 7 7 6 5 4 3 2 2 1 2 1 1
12 10 9 9 12 10 10 11 8 6 7 6 6 3 2 4 7 8 7 6 6 7 8 8 10 10 9 9 10 10 9 8 7 6 5 4 4 4 3 2 2 2 2 2
11 10 10 11 10 9 11 12 11 8 7 8 7 3 2 3 5 8 9 7 7 6 7 8 8 9 9 9 9 9 9 9 7 6 5 4 3 3 3 3 2 2 2 2
6 8 10 11 9 10 12 13 13 11 9 8 7 2 3 2 4 6 8 7 7 7 7 8 8 7 7 7 7 8 8 8 8 7 6 5 5 4 3 3 3 3 2 2
6 11 12 13 10 9 12 13 12 12 10 8 6 4 5 3 3 6 8 7 6 7 7 7 7 6 5 6 6 6 6 7 7 7 6 5 5 4 3 3 3 3 3 3
9 13 14 15 15 13 12 14 14 13 12 10 7 5 6 5 3 4 7 7 6 6 7 6 7 6 6 5 5 5 5 5 5 6 6 5 4 3 3 3 3 3 3 4
9 11 13 16 17 15 14 14 15 13 12 11 9 4 5 5 4 4 6 7 7 7 6 6 7 7 7 5 5 5 4 4 4 4 5 5 4 4 3 3 3 3 3 3
9 10 12 14 13 14 16 12 11 10 10 9 8 3 6 6 3 4 5 6 7 6 6 6 6 7 7 6 5 5 4 4 4 4 4 4 4 3 3 4 3 3 3 3
11 9 9 12 12 15 11 6 6 5 5 3 1 2 6 7 6 5 5 5 5 5 6 6 5 4 6 6 6 5 5 4 4 3 3 3 3 3 3 3 2 2 2 3
13 9 10 10 12 13 9 6 6 6 3 1 2 3 4 7 6 6 6 6 5 5 5 5 5 5 5 4 4 4 4 4 4 3 3 2 2 1 2 2 2 2 2 3
12 8 10 11 12 12 7 4 5 5 4 1 3 3 2 4 4 4 5 6 4 5 6 5 4 4 5 4 4 3 3 3 3 2 2 2 2 2 2 2 2 2 2 4
10 10 11 13 12 8 4 3 4 5 1 2 3 4 3 2 3 4 3 4 5 5 5 5 4 4 4 4 4 3 2 1 1 1 1 1 1 2 2 2 2 2 3 4
10 10 10 11 11 6 5 1 1 1 3 3 4 5 5 5 5 4 4 5 5 5 5 4 4 4 4 4 3 2 1 1 1 0 0 1 1 3 2 2 2 3 4 4
8 7 5 5 3 2 5 5 4 3 3 3 4 4 4 4 4 5 4 5 5 5 5 4 4 4 4 3 2 2 1 1 0 0 1 1 2 2 2 3 3 3 4 4
5 4 5 4 1 2 3 4 5 5 3 3 3 4 3 3 4 5 5 4 4 4 3 3 3 3 3 2 2 2 1 1 0 1 1 2 2 2 2 2 3 3 3 3
5 4 4 3 1 1 2 3 4 4 4 4 4 3 3 4 5 4 3 3 4 3 3 3 2 2 2 2 2 2 1 0 1 2 2 3 3 3 2 2 2 3 2 2
5 4 4 3 1 1 1 3 3 4 4 5 4 4 4 3 4 3 3 4 3 3 3 2 2 2 2 2 1 1 0 0 2 2 2 3 3 2 2 1 1 1 1 0
Wind_Direction
235 239 243 243 239 249 270 274 262 258 222 224 164 176 209 188 173 165 166 165 167 164 156 153 154 148 145 143 145 149 143 143 149 148 164 159 165 156 137 139 127 128 142 147
241 242 249 249 252 247 251 260 255 269 244 251 200 188 219 194 173 167 168 166 164 160 153 155 159 155 152 151 151 151 152 153 160 159 172 168 160 154 141 132 124 135 150 140
238 248 250 254 252 253 248 250 252 258 271 254 245 230 228 191 182 169 173 170 169 167 160 159 160 156 154 156 161 162 158 156 163 166 169 152 146 150 143 143 135 152 147 137
246 244 251 252 251 254 263 259 259 248 263 271 256 252 194 188 185 181 174 171 169 164 160 159 160 158 157 159 159 155 157 158 161 173 175 176 163 162 160 150 145 149 146 158
244 241 246 252 257 256 270 292 285 269 266 272 263 259 226 184 194 193 180 174 169 163 161 158 159 159 160 159 158 155 151 158 160 170 167 177 169 170 149 144 139 147 146 159
254 245 243 249 259 258 263 274 272 268 265 263 247 238 227 191 193 194 179 168 162 160 158 156 157 156 159 157 155 152 149 153 162 170 168 166 178 180 153 155 159 176 166 167
243 245 243 243 246 246 247 258 264 254 243 254 246 232 193 179 178 177 166 163 158 156 156 153 154 158 161 160 157 153 154 160 165 171 174 169 189 198 189 184 192 202 169 149
233 238 235 234 236 246 247 246 250 266 275 272 251 234 153 139 130 146 143 144 150 154 152 153 157 159 163 163 158 154 156 162 167 171 171 169 187 200 194 195 205 210 190 132
242 242 227 228 234 239 250 255 267 281 285 282 275 214 148 138 145 148 138 143 155 154 152 154 157 160 161 161 156 156 158 166 171 174 170 178 184 199 190 189 200 202 126 152
252 263 248 223 235 232 245 258 266 269 278 280 280 257 215 155 150 137 127 143 149 151 150 154 157 160 163 162 157 156 157 165 172 172 177 183 182 186 191 191 152 129 110 71
249 263 258 238 224 234 238 248 254 265 267 276 265 267 97 138 147 144 137 142 144 140 150 151 153 155 156 157 156 155 157 162 166 168 168 173 172 176 180 180 169 161 150 142
237 256 260 252 240 226 240 242 243 249 254 267 271 258 92 148 152 144 141 136 139 139 142 144 145 146 154 160 159 159 162 165 166 163 158 158 154 172 179 178 173 169 167 173
252 252 254 254 236 221 236 242 246 249 253 254 264 235 138 149 127 131 124 124 126 126 129 135 133 140 147 146 147 156 165 166 167 163 163 165 170 174 182 181 176 180 184 195
256 250 251 253 252 240 238 248 251 251 252 251 247 194 167 193 165 138 121 127 133 134 130 133 128 133 131 133 139 150 163 162 165 162 168 169 175 176 176 179 175 182 188 200
246 252 258 265 267 262 259 249 248 248 258 265 259 197 180 179 170 130 126 134 134 134 139 134 130 131 124 129 136 144 152 147 154 158 162 164 168 174 175 176 180 186 198 204
246 266 269 267 265 262 261 253 248 242 247 252 257 231 138 137 134 131 129 136 137 136 144 139 134 130 130 133 135 131 134 142 147 152 152 154 164 172 177 185 187 191 198 209
246 253 267 270 270 267 261 256 245 240 247 252 255 197 132 125 127 127 138 137 132 137 134 134 138 147 146 147 136 133 128 130 133 138 141 153 164 179 190 204 196 202 206 215
244 253 257 266 272 259 257 266 264 249 250 262 70 105 125 119 107 98 100 99 107 121 123 128 135 136 136 141 147 149 144 137 135 136 141 156 178 185 189 196 208 220 221 224
244 234 248 257 260 258 257 256 260 249 240 254 123 113 135 131 119 101 95 94 100 109 107 118 127 123 116 120 135 141 147 141 142 147 159 170 174 198 201 199 211 221 232 240
241 235 240 249 258 260 258 266 275 243 225 19 103 134 154 141 132 114 104 98 94 102 111 115 116 114 113 115 127 138 149 146 155 156 167 169 186 219 228 225 235 243 254 257
241 232 236 249 252 255 309 322 291 254 205 44 57 94 115 94 109 118 121 106 96 95 95 102 107 107 103 110 119 128 128 137 133 120 132 166 206 241 235 236 248 252 256 260
242 240 233 243 248 251 338 341 339 47 77 69 62 67 75 89 100 113 131 121 112 107 98 95 91 90 86 89 105 119 123 91 90 128 203 224 236 263 267 245 250 256 258 259
251 259 253 240 229 70 28 54 68 66 65 60 68 75 88 97 112 110 99 100 104 100 98 93 94 92 90 96 115 134 111 96 84 20 277 259 253 253 261 257 252 249 248 251
250 277 271 254 154 68 48 45 41 38 37 42 73 88 105 120 122 116 110 108 109 97 90 93 103 103 99 98 96 91 99 117 152 244 257 258 245 240 245 248 253 254 259 262
282 266 257 250 260 257 10 31 27 34 26 33 60 72 80 111 117 116 114 108 105 104 90 81 81 93 89 83 91 89 78 109 255 253 257 261 262 254 246 254 282 270 301 281
274 273 255 255 262 278 336 1 18 38 28 31 42 39 34 70 95 96 90 91 95 92 82 78 78 78 93 100 93 72 71 21 290 281 275 276 271 264 254 257 279 8 223 182
Height
1467 1469 1469 1465 1461 1463 1464 1468 1471 1464 1454 1458 1462 1468 1464 1464 1466 1471 1475 1480 1484 1488 1492 1495 1498 1501 1503 1505 1507 1510 1512 1514 1516 1517 1519 1520 1521 1523 1523 1524 1524 1525 1525 1525
1467 1467 1459 1456 1456 1458 1462 1467 1466 1461 1454 1457 1462 1464 1461 1460 1463 1467 1472 1477 1481 1486 1491 1494 1497 1500 1502 1504 1507 1509 1511 1513 1515 1517 1518 1520 1521 1522 1523 1523 1524 1524 1524 1524
1467 1460 1453 1454 1456 1459 1461 1463 1463 1464 1456 1454 1461 1469 1463 1459 1461 1464 1469 1474 1479 1483 1488 1492 1495 1499 1501 1503 1506 1508 1510 1512 1514 1516 1518 1520 1520 1522 1523 1523 1523 1523 1524 1524
1459 1454 1453 1454 1455 1456 1462 1452 1455 1459 1465 1468 1465 1482 1467 1460 1462 1462 1466 1470 1475 1480 1485 1490 1494 1497 1500 1502 1504 1507 1509 1511 1512 1514 1516 1518 1519 1520 1521 1522 1522 1522 1523 1523
1456 1452 1453 1455 1452 1451 1454 1449 1453 1456 1462 1469 1465 1478 1472 1460 1466 1463 1463 1467 1471 1477 1482 1487 1491 1495 1498 1501 1503 1505 1507 1509 1511 1513 1515 1517 1518 1519 1520 1521 1521 1521 1522 1522
1450 1448 1448 1449 1447 1447 1448 1451 1454 1456 1463 1482 1470 1475 1477 1464 1462 1459 1460 1463 1469 1474 1479 1484 1489 1493 1497 1500 1502 1504 1505 1508 1510 1512 1514 1515 1516 1518 1519 1519 1520 1520 1521 1521
1456 1449 1445 1446 1450 1447 1449 1462 1480 1484 1485 1482 1461 1466 1468 1455 1451 1455 1458 1462 1466 1471 1477 1482 1487 1491 1495 1498 1501 1503 1504 1506 1508 1510 1512 1514 1515 1516 1517 1518 1519 1519 1520 1520
1464 1463 1446 1443 1447 1451 1450 1457 1478 1491 1487 1476 1463 1467 1458 1446 1450 1453 1457 1461 1465 1470 1475 1480 1485 1489 1493 1497 1499 1501 1503 1505 1507 1508 1510 1512 1513 1514 1515 1517 1517 1518 1519 1519
1457 1457 1439 1439 1440 1444 1451 1452 1448 1463 1471 1478 1470 1462 1452 1446 1450 1453 1456 1461 1465 1469 1474 1478 1483 1487 1491 1495 1497 1500 1502 1503 1505 1507 1508 1510 1511 1513 1514 1515 1516 1517 1517 1518
1444 1454 1440 1437 1439 1440 1444 1447 1454 1468 1485 1491 1481 1473 1466 1454 1453 1453 1458 1462 1466 1469 1473 1477 1481 1485 1489 1492 1495 1497 1499 1502 1504 1506 1507 1508 1509 1511 1512 1513 1514 1514 1515 1516
1440 1451 1448 1442 1445 1449 1448 1451 1454 1462 1468 1484 1493 1479 1450 1451 1451 1454 1458 1462 1465 1469 1472 1476 1479 1484 1488 1492 1494 1496 1498 1500 1502 1504 1505 1507 1508 1510 1510 1511 1511 1512 1513 1514
1439 1446 1454 1447 1436 1436 1442 1446 1452 1468 1472 1468 1474 1474 1448 1450 1450 1453 1458 1463 1466 1469 1472 1476 1479 1483 1488 1491 1493 1495 1497 1499 1501 1503 1504 1505 1507 1508 1509 1509 1509 1510 1511 1512
1440 1450 1465 1461 1451 1443 1443 1442 1443 1447 1456 1466 1474 1473 1450 1452 1453 1456 1459 1463 1467 1470 1473 1476 1480 1483 1487 1489 1492 1494 1496 1498 1499 1500 1502 1503 1504 1506 1507 1507 1507 1508 1508 1509
1441 1447 1457 1465 1454 1444 1446 1442 1440 1445 1455 1460 1461 1464 1456 1455 1455 1457 1459 1463 1467 1470 1473 1476 1479 1483 1486 1489 1491 1493 1495 1496 1498 1499 1500 1502 1503 1504 1504 1505 1505 1506 1507 1507
1440 1447 1446 1442 1437 1435 1439 1440 1439 1443 1445 1453 1452 1455 1453 1452 1454 1456 1459 1462 1466 1469 1473 1476 1479 1482 1485 1488 1490 1492 1494 1495 1496 1498 1499 1500 1501 1502 1502 1503 1504 1504 1505 1505
1440 1446 1447 1446 1437 1435 1438 1437 1435 1437 1439 1443 1445 1448 1446 1450 1453 1456 1459 1462 1466 1470 1474 1476 1479 1481 1484 1487 1489 1490 1492 1493 1495 1496 1497 1498 1499 1500 1501 1501 1502 1502 1503 1503
1442 1448 1454 1454 1441 1440 1446 1434 1433 1436 1435 1439 1446 1446 1446 1451 1455 1457 1460 1462 1466 1470 1473 1476 1478 1480 1482 1484 1487 1489 1490 1491 1493 1494 1495 1496 1497 1498 1499 1499 1500 1500 1500 1501
1443 1447 1452 1454 1453 1465 1442 1427 1429 1433 1436 1436 1440 1442 1446 1451 1456 1459 1461 1463 1467 1471 1473 1476 1478 1480 1482 1484 1486 1488 1489 1490 1491 1492 1494 1495 1495 1496 1496 1497 1497 1497 1498 1498
1435 1444 1452 1455 1459 1452 1438 1431 1433 1438 1441 1437 1441 1445 1448 1452 1456 1461 1463 1466 1469 1472 1474 1476 1478 1479 1481 1483 1484 1486 1487 1489 1490 1491 1492 1493 1493 1494 1494 1494 1494 1495 1495 1495
1434 1438 1449 1453 1462 1463 1445 1434 1433 1437 1447 1441 1443 1447 1450 1452 1458 1463 1464 1466 1469 1471 1474 1476 1478 1479 1480 1482 1484 1485 1486 1487 1488 1489 1490 1491 1491 1491 1491 1491 1492 1492 1492 1492
1444 1445 1450 1454 1457 1450 1439 1435 1436 1451 1454 1447 1447 1450 1452 1455 1459 1463 1465 1467 1470 1472 1474 1476 1477 1479 1479 1481 1482 1483 1484 1485 1486 1487 1488 1488 1489 1489 1489 1489 1489 1489 1489 1489
1447 1449 1452 1453 1458 1458 1441 1440 1446 1451 1448 1449 1450 1452 1455 1457 1459 1463 1465 1467 1470 1472 1474 1476 1476 1477 1478 1479 1480 1481 1482 1483 1484 1485 1485 1486 1486 1487 1487 1486 1486 1486 1486 1486
1443 1444 1444 1448 1452 1450 1447 1446 1449 1450 1451 1452 1453 1455 1456 1458 1460 1463 1465 1467 1470 1472 1474 1475 1476 1476 1477 1478 1479 1479 1480 1481 1482 1482 1483 1483 1483 1483 1484 1483 1483 1483 1483 1483
1441 1441 1444 1446 1446 1447 1449 1449 1450 1451 1453 1453 1454 1456 1457 1459 1461 1464 1466 1468 1470 1471 1473 1474 1475 1476 1476 1477 1477 1478 1479 1479 1480 1480 1480 1480 1480 1480 1480 1480 1481 1481 1481 1481
1445 1444 1445 1448 1448 1449 1450 1451 1452 1453 1453 1454 1455 1456 1457 1458 1461 1463 1466 1468 1469 1471 1472 1473 1474 1475 1475 1476 1476 1477 1477 1477 1478 1478 1478 1478 1478 1478 1477 1477 1478 1478 1477 1478
1446 1447 1448 1450 1450 1450 1452 1452 1453 1454 1455 1456 1457 1457 1458 1459 1461 1463 1465 1467 1468 1470 1471 1472 1473 1474 1474 1475 1475 1475 1475 1475 1475 1475 1475 1475 1475 1476 1475 1475 1475 1474 1474 1474